Camden, AR

9:18 PM CST on February 21, 2017 (GMT -0600)
Harrell

Weather History for KCDH - February, 2014

Change the Weather History Date:

Monday, February 3, 2014

  Actual Average Record
Temperature  
Mean Temperature 39 °F -  
Max Temperature 50 °F 54 °F 77 °F (1962)
Min Temperature 28 °F 31 °F 2 °F (1985)
Degree Days  
Heating Degree Days 26    
Moisture  
Dew Point 26 °F    
Average Humidity 70    
Maximum Humidity 93    
Minimum Humidity 40    
Precipitation  
Precipitation 0.00 in - - ()
Sea Level Pressure  
Sea Level Pressure 30.24 in    
Wind  
Wind Speed - (North)    
Max Wind Speed -    
Max Gust Speed -    
Visibility 10 miles    
Events      
Averages and records for this station are not official NWS values.
T = Trace of Precipitation, MM = Missing Value Source: NWS Daily Summary

Daily Weather History Graph

Daily Weather History Graph

Search for Another Location

Airport or City:

Trip Planner

Search our weather history database for the weather conditions in past years. The results will help you decide how hot, cold, wet, or windy it might be!

Date:

Astronomy

Feb. 03, 2014 Rise Set
Actual Time 7:05 AM CST 5:44 PM CST
Civil Twilight 6:39 AM CST 6:10 PM CST
Nautical Twilight 6:10 AM CST 6:39 PM CST
Astronomical Twilight 5:40 AM CST 7:09 PM CST
Moon 9:23 AM CST (2/3) 10:18 PM CST (2/3)
Length of Visible Light 11h 30m
Length of Day
10h 38m
Waxing Crescent, 20% of the Moon is Illuminated
Feb 3
Waxing Crescent
Feb 6
First Quarter
Feb 14
Full
Feb 22
Last Quarter
Mar 1
New

Hourly Weather History & Observations

Time (CST) Temp. Dew Point Humidity Pressure Visibility Wind Dir Wind Speed Gust Speed Precip Events Conditions
12:15 AM 32.0 °F 30.2 °F 93% 30.23 in 9.0 mi North - - N/A   Overcast
12:35 AM 32.0 °F 28.4 °F 87% 30.22 in 10.0 mi North - - N/A   Overcast
12:55 AM 32.0 °F 28.4 °F 87% 30.23 in 10.0 mi North - - N/A   Overcast
1:15 AM 32.0 °F 28.4 °F 87% 30.23 in 10.0 mi North - - N/A   Overcast
1:35 AM 32.0 °F 28.4 °F 87% 30.23 in 10.0 mi North - - N/A   Overcast
1:55 AM 32.0 °F 28.4 °F 87% 30.24 in 10.0 mi North - - N/A   Overcast
2:35 AM 32.0 °F 28.4 °F 87% 30.25 in 10.0 mi North - - N/A   Overcast
2:55 AM 32.0 °F 28.4 °F 87% 30.25 in 10.0 mi North - - N/A   Overcast
3:15 AM 32.0 °F 28.4 °F 87% 30.25 in 10.0 mi North - - N/A   Overcast
3:35 AM 32.0 °F 28.4 °F 87% 30.24 in 10.0 mi North - - N/A   Overcast
3:55 AM 32.0 °F 28.4 °F 87% 30.25 in 10.0 mi North - - N/A   Overcast
4:15 AM 32.0 °F 28.4 °F 87% 30.26 in 10.0 mi North - - N/A   Overcast
4:35 AM 32.0 °F 26.6 °F 80% 30.26 in 10.0 mi North - - N/A   Overcast
4:55 AM 32.0 °F 26.6 °F 80% 30.26 in 10.0 mi North - - N/A   Overcast
5:15 AM 32.0 °F 26.6 °F 80% 30.27 in 10.0 mi North - - N/A   Overcast
5:35 AM 32.0 °F 24.8 °F 75% 30.27 in 10.0 mi North - - N/A   Overcast
5:55 AM 32.0 °F 26.6 °F 80% 30.27 in 10.0 mi North - - N/A   Overcast
6:15 AM 30.2 °F 24.8 °F 80% 30.28 in 10.0 mi North - - N/A   Scattered Clouds
6:35 AM 28.4 °F 23.0 °F 80% 30.29 in 10.0 mi North - - N/A   Clear
6:55 AM 28.4 °F 23.0 °F 80% 30.29 in 10.0 mi North - - N/A   Clear
7:15 AM 28.4 °F 23.0 °F 80% 30.30 in 10.0 mi North - - N/A   Clear
7:35 AM 28.4 °F 23.0 °F 80% 30.30 in 10.0 mi North - - N/A   Clear
7:55 AM 28.4 °F 23.0 °F 80% 30.30 in 10.0 mi North - - N/A   Clear
8:15 AM 30.2 °F 23.0 °F 75% 30.29 in 10.0 mi North - - N/A   Clear
8:35 AM 30.2 °F 23.0 °F 75% 30.30 in 10.0 mi North - - N/A   Clear
8:55 AM 32.0 °F 23.0 °F 69% 30.30 in 10.0 mi North - - N/A   Clear
9:15 AM 32.0 °F 23.0 °F 69% 30.31 in 10.0 mi North - - N/A   Clear
9:35 AM 32.0 °F 23.0 °F 69% 30.31 in 10.0 mi North - - N/A   Clear
9:55 AM 35.6 °F 23.0 °F 60% 30.31 in 10.0 mi North - - N/A   Clear
10:15 AM 35.6 °F 24.8 °F 65% 30.31 in 10.0 mi North - - N/A   Clear
10:35 AM 37.4 °F 24.8 °F 60% 30.31 in 10.0 mi North - - N/A   Clear
10:55 AM 39.2 °F 24.8 °F 56% 30.30 in 10.0 mi North - - N/A   Clear
11:15 AM 39.2 °F 24.8 °F 56% 30.29 in 10.0 mi North - - N/A   Clear
11:35 AM 41.0 °F 26.6 °F 57% 30.29 in 10.0 mi North - - N/A   Clear
11:55 AM 42.8 °F 26.6 °F 53% 30.28 in 10.0 mi North - - N/A   Clear
12:15 PM 42.8 °F 26.6 °F 53% 30.27 in 10.0 mi North - - N/A   Clear
12:35 PM 44.6 °F 26.6 °F 49% 30.26 in 10.0 mi North - - N/A   Clear
12:55 PM 46.4 °F 26.6 °F 46% 30.25 in 10.0 mi North - - N/A   Clear
1:15 PM 46.4 °F 28.4 °F 50% 30.24 in 10.0 mi North - - N/A   Clear
1:35 PM 48.2 °F 28.4 °F 46% 30.22 in 10.0 mi North - - N/A   Clear
1:55 PM 48.2 °F 26.6 °F 43% 30.22 in 10.0 mi North - - N/A   Clear
2:15 PM 48.2 °F 26.6 °F 43% 30.22 in 10.0 mi North - - N/A   Clear
2:35 PM 48.2 °F 26.6 °F 43% 30.22 in 10.0 mi North - - N/A   Clear
2:55 PM 50.0 °F 26.6 °F 40% 30.21 in 10.0 mi North - - N/A   Clear
3:15 PM 48.2 °F 26.6 °F 43% 30.21 in 10.0 mi North - - N/A   Clear
3:35 PM 48.2 °F 26.6 °F 43% 30.21 in 10.0 mi North - - N/A   Clear
3:55 PM 48.2 °F 26.6 °F 43% 30.21 in 10.0 mi North - - N/A   Clear
4:15 PM 46.4 °F 26.6 °F 46% 30.21 in 10.0 mi North - - N/A   Clear
4:35 PM 46.4 °F 26.6 °F 46% 30.21 in 10.0 mi North - - N/A   Clear
4:55 PM 44.6 °F 26.6 °F 49% 30.20 in 10.0 mi North - - N/A   Clear
5:15 PM 44.6 °F 28.4 °F 53% 30.19 in 10.0 mi North - - N/A   Clear
5:35 PM 41.0 °F 28.4 °F 61% 30.20 in 10.0 mi North - - N/A   Clear
5:55 PM 39.2 °F 28.4 °F 65% 30.20 in 10.0 mi North - - N/A   Clear
6:15 PM 39.2 °F 28.4 °F 65% 30.21 in 10.0 mi North - - N/A   Clear
6:35 PM 37.4 °F 28.4 °F 70% 30.20 in 10.0 mi North - - N/A   Clear
6:55 PM 37.4 °F 26.6 °F 65% 30.21 in 10.0 mi North - - N/A   Clear
7:15 PM 35.6 °F 26.6 °F 70% 30.20 in 10.0 mi North - - N/A   Clear
7:35 PM 33.8 °F 26.6 °F 75% 30.21 in 10.0 mi North - - N/A   Clear
7:55 PM 32.0 °F 26.6 °F 80% 30.22 in 10.0 mi North - - N/A   Clear
8:15 PM 32.0 °F 26.6 °F 80% 30.21 in 10.0 mi North - - N/A   Scattered Clouds
8:35 PM 32.0 °F 26.6 °F 80% 30.21 in 10.0 mi North - - N/A   Overcast
8:55 PM 32.0 °F 26.6 °F 80% 30.21 in 10.0 mi North - - N/A   Overcast
9:15 PM 32.0 °F 26.6 °F 80% 30.21 in 10.0 mi North - - N/A   Overcast
9:35 PM 32.0 °F 26.6 °F 80% 30.21 in 10.0 mi North - - N/A   Overcast
9:55 PM 32.0 °F 26.6 °F 80% 30.19 in 10.0 mi North - - N/A   Overcast
10:15 PM 32.0 °F 26.6 °F 80% 30.19 in 10.0 mi North - - N/A   Overcast
10:35 PM 32.0 °F 26.6 °F 80% 30.18 in 10.0 mi North - - N/A   Overcast
10:55 PM 32.0 °F 26.6 °F 80% 30.16 in 10.0 mi North - - N/A   Overcast
11:15 PM 32.0 °F 26.6 °F 80% 30.16 in 9.0 mi North - - N/A   Overcast
11:35 PM 32.0 °F 26.6 °F 80% 30.14 in 8.0 mi North - - N/A   Overcast
11:55 PM 32.0 °F 26.6 °F 80% 30.14 in 8.0 mi North - - N/A   Overcast